Date,TemperatureHighF,TemperatureAvgF,TemperatureLowF,DewpointHighF,DewpointAvgF,DewpointLowF,HumidityHigh,HumidityAvg,HumidityLow,PressureMaxIn,PressureMinIn,WindSpeedMaxMPH,WindSpeedAvgMPH,GustSpeedMaxMPH,PrecipitationSumIn
2013-1-1,50,47,42,50,40,28,98,80,49,29.98,29.82,5,1,0,0.29
2013-1-2,50,45,41,49,42,36,98,87,71,30.08,29.80,4,1,0,0.27
2013-1-3,47,40,30,37,34,25,87,79,62,30.15,30.03,3,0,0,0.00
2013-1-4,52,37,25,28,24,20,87,62,35,30.21,30.07,4,1,0,0.00
2013-1-5,50,37,25,30,24,19,80,61,38,30.28,30.14,3,0,0,0.00
2013-1-6,51,43,34,38,34,29,88,73,59,30.13,29.93,3,0,0,0.00
2013-1-7,54,38,27,34,29,23,88,72,45,30.31,30.05,4,1,0,0.00
2013-1-8,58,43,29,40,35,25,89,74,47,30.35,30.24,3,0,0,0.00
2013-1-9,69,50,35,51,42,32,98,77,51,30.34,30.23,3,0,0,0.00
2013-1-10,65,53,45,49,45,36,98,77,51,30.41,30.29,3,0,0,0.00
2013-1-11,51,48,42,51,43,33,98,87,53,30.31,30.02,4,0,0,0.25
2013-1-12,72,57,49,63,55,48,98,93,72,30.05,29.96,3,0,0,0.00
2013-1-13,76,63,51,62,57,51,98,84,59,30.01,29.91,5,1,0,0.00
2013-1-14,70,64,58,64,59,55,98,85,76,30.02,29.94,4,0,0,0.00
2013-1-15,64,48,45,60,46,43,98,94,83,30.10,29.92,5,1,0,0.00
2013-1-16,50,47,44,50,46,44,98,98,98,29.95,29.84,3,0,0,0.19
2013-1-17,51,46,33,50,46,32,98,98,91,30.04,29.74,12,2,0,1.45
2013-1-18,49,36,28,34,29,24,98,77,42,30.41,30.02,4,1,0,0.29
2013-1-19,56,39,25,33,27,21,87,66,36,30.38,30.03,6,1,0,0.00
2013-1-20,65,48,36,39,33,28,77,60,33,30.02,29.85,4,1,0,0.00
2013-1-21,61,44,29,34,28,19,89,56,33,29.96,29.73,8,1,0,0.00
2013-1-22,40,33,24,19,7,-4,53,34,16,30.16,29.83,6,2,0,0.00
2013-1-23,42,29,17,16,10,1,73,45,29,30.26,29.93,5,1,0,0.00
2013-1-24,38,31,23,23,12,1,76,47,25,30.39,29.84,8,2,0,0.00
2013-1-25,28,25,20,24,13,2,86,63,35,30.41,29.99,3,0,0,0.06
2013-1-26,42,31,27,33,26,23,98,83,61,30.29,29.96,2,0,0,0.21
2013-1-27,43,33,23,28,25,19,98,75,52,30.48,30.29,4,0,0,0.00
2013-1-28,52,43,33,45,35,26,85,74,61,30.39,30.10,4,1,0,0.01
2013-1-29,74,58,46,59,52,45,98,81,57,30.11,29.92,4,1,0,0.00
2013-1-30,72,67,59,64,62,56,98,84,72,29.93,29.24,14,4,0,0.31
2013-1-31,60,47,34,60,31,20,98,57,34,29.89,29.33,9,3,0,0.14